This is the latest recevied weather packets stored in our database for station/object KD7JB. If no packets are shown the sender has not sent any weather packets the latest 10 day(s).
| Time | Temp. | Humidity | Pressure | Rain* | Wind** | Luminosity | Snow |
|---|---|---|---|---|---|---|---|
| 1777833550 | 20° C | 36% | 1177.5 hPa | 0 mm | - | 718 W/m² | - |
| 1777833247 | 19.44° C | 36% | 1177.6 hPa | 0 mm | - | 714 W/m² | - |
| 1777832944 | 19.44° C | 36% | 1177.9 hPa | 0 mm | - | 708 W/m² | - |
| 1777832643 | 18.89° C | 37% | 1177.6 hPa | 0 mm | - | 701 W/m² | - |
| 1777832339 | 19.44° C | 38% | 1177.8 hPa | 0 mm | - | 695 W/m² | - |
| 1777832036 | 18.89° C | 34% | 1177.6 hPa | 0 mm | - | 689 W/m² | - |
| 1777831733 | 18.89° C | 34% | 1177.9 hPa | 0 mm | - | 680 W/m² | - |
| 1777831431 | 19.44° C | 37% | 1177.8 hPa | 0 mm | - | 675 W/m² | - |
| 1777831127 | 18.89° C | 36% | 1177.8 hPa | 0 mm | - | 668 W/m² | - |
| 1777830825 | 18.89° C | 34% | 1177.8 hPa | 0 mm | - | 650 W/m² | - |
| 1777830520 | 19.44° C | 33% | 1177.8 hPa | 0 mm | - | 649 W/m² | - |
| 1777830219 | 18.89° C | 35% | 1177.8 hPa | 0 mm | - | 640 W/m² | - |
| 1777829914 | 18.33° C | 33% | 1177.8 hPa | 0 mm | - | 636 W/m² | - |
| 1777829611 | 19.44° C | 32% | 1177.9 hPa | 0 mm | - | 625 W/m² | - |
| 1777829307 | 18.89° C | 30% | 1177.8 hPa | 0 mm | - | 615 W/m² | - |
| 1777829005 | 18.89° C | 33% | 1177.8 hPa | 0 mm | - | 606 W/m² | - |
| 1777828701 | 18.89° C | 33% | 1178 hPa | 0 mm | - | 596 W/m² | - |
| 1777828398 | 18.89° C | 33% | 1177.9 hPa | 0 mm | - | 585 W/m² | - |
| 1777828095 | 18.89° C | 33% | 1177.8 hPa | 0 mm | - | 575 W/m² | - |
| 1777827792 | 18.33° C | 35% | 1178 hPa | 0 mm | - | 563 W/m² | - |
| 1777827489 | 18.33° C | 36% | 1177.9 hPa | 0 mm | - | 552 W/m² | - |
| 1777827187 | 18.33° C | 37% | 1177.9 hPa | 0 mm | - | 538 W/m² | - |
| 1777826882 | 17.78° C | 36% | 1178 hPa | 0 mm | - | 529 W/m² | - |
| 1777826580 | 18.33° C | 36% | 1178 hPa | 0 mm | - | 516 W/m² | - |
| 1777826275 | 18.33° C | 37% | 1177.9 hPa | 0 mm | - | 504 W/m² | - |
* Rain latest hour (hover to see other rain measurements)
** Current wind speed in m/s (hover to see current wind gust speed)